Year,Month,Day,Hour,Minute,Value (Times are PST for temperature in C)
2009,11,01,00,00,4.40
2009,11,01,00,01,4.40
2009,11,01,00,02,4.50
2009,11,01,00,03,4.50
2009,11,01,00,04,4.50
2009,11,01,00,05,4.40
2009,11,01,00,06,4.40
2009,11,01,00,07,4.40
2009,11,01,00,08,4.40
2009,11,01,00,09,4.40
2009,11,01,00,10,4.40
2009,11,01,00,11,4.40
2009,11,01,00,12,4.40
2009,11,01,00,13,4.40
2009,11,01,00,14,4.40
2009,11,01,00,15,4.40
2009,11,01,00,16,4.40
2009,11,01,00,17,4.40
2009,11,01,00,18,4.30
2009,11,01,00,19,4.30
2009,11,01,00,20,4.30
2009,11,01,00,21,4.30
2009,11,01,00,22,4.30
2009,11,01,00,23,4.30
2009,11,01,00,24,4.30
2009,11,01,00,25,4.30
2009,11,01,00,26,4.30
2009,11,01,00,27,4.30
2009,11,01,00,28,4.30
2009,11,01,00,29,4.30
2009,11,01,00,30,4.30
2009,11,01,00,31,4.30
2009,11,01,00,32,4.30
2009,11,01,00,33,4.30
2009,11,01,00,34,4.30
2009,11,01,00,35,4.20
2009,11,01,00,36,4.20
2009,11,01,00,37,4.20
2009,11,01,00,38,4.20
2009,11,01,00,39,4.20
2009,11,01,00,40,4.20
2009,11,01,00,41,4.20
2009,11,01,00,42,4.20
2009,11,01,00,43,4.20
2009,11,01,00,44,4.20
2009,11,01,00,45,4.20
2009,11,01,00,46,4.20
2009,11,01,00,47,4.20
2009,11,01,00,48,4.20
2009,11,01,00,49,4.10
2009,11,01,00,50,4.20
2009,11,01,00,51,4.10
2009,11,01,00,52,4.10
2009,11,01,00,53,4.10
2009,11,01,00,54,4.10
2009,11,01,00,55,4.10
2009,11,01,00,56,4.10
2009,11,01,00,57,4.10
2009,11,01,00,58,4.10
2009,11,01,00,59,4.10
2009,11,01,01,00,4.10
2009,11,01,01,01,4.10
2009,11,01,01,02,4.10
2009,11,01,01,03,4.10
2009,11,01,01,04,4.10
2009,11,01,01,05,4.10
2009,11,01,01,06,4.10
2009,11,01,01,07,4.10
2009,11,01,01,08,4.10
2009,11,01,01,09,4.10
2009,11,01,01,10,4.10
2009,11,01,01,11,4.10
2009,11,01,01,12,4.10
2009,11,01,01,13,4.10
2009,11,01,01,14,4.10
2009,11,01,01,15,4.10
2009,11,01,01,16,4.00
2009,11,01,01,17,4.00
2009,11,01,01,18,4.00
2009,11,01,01,19,4.00
2009,11,01,01,20,4.00
2009,11,01,01,21,4.00
2009,11,01,01,22,4.00
2009,11,01,01,23,4.00
2009,11,01,01,24,4.00
2009,11,01,01,25,4.00
2009,11,01,01,26,4.00
2009,11,01,01,27,4.00
2009,11,01,01,28,4.00
2009,11,01,01,29,4.00
2009,11,01,01,30,4.00
2009,11,01,01,31,4.00
2009,11,01,01,32,4.00
2009,11,01,01,33,4.00
2009,11,01,01,34,4.00
2009,11,01,01,35,4.00
2009,11,01,01,36,4.00
2009,11,01,01,37,4.00
2009,11,01,01,38,3.90
2009,11,01,01,39,3.90
2009,11,01,01,40,3.90
2009,11,01,01,41,3.90
2009,11,01,01,42,3.90
2009,11,01,01,43,3.90
2009,11,01,01,44,3.90
2009,11,01,01,45,3.90
2009,11,01,01,46,3.90
2009,11,01,01,47,3.90
2009,11,01,01,48,3.90
2009,11,01,01,49,3.90
2009,11,01,01,50,3.90
2009,11,01,01,51,3.90
2009,11,01,01,52,3.90
2009,11,01,01,53,3.90
2009,11,01,01,54,4.00
2009,11,01,01,55,4.00
2009,11,01,01,56,4.00
2009,11,01,01,57,4.00
2009,11,01,01,58,4.00
2009,11,01,01,59,4.00
2009,11,01,02,08,3.90
2009,11,01,02,09,3.90
2009,11,01,02,10,3.90
2009,11,01,02,11,3.90
2009,11,01,02,12,3.90
2009,11,01,02,13,3.90
2009,11,01,02,14,3.90
2009,11,01,02,15,3.90
2009,11,01,02,16,3.90
2009,11,01,02,17,3.90
2009,11,01,02,18,3.90
2009,11,01,02,19,3.90
2009,11,01,02,20,3.90
2009,11,01,02,21,3.90
2009,11,01,02,22,3.90
2009,11,01,02,23,3.90
2009,11,01,02,24,3.90
2009,11,01,02,25,3.90
2009,11,01,02,26,3.90
2009,11,01,02,27,3.90
2009,11,01,02,28,3.90
2009,11,01,02,29,3.90
2009,11,01,02,30,3.90
2009,11,01,02,31,3.90
2009,11,01,02,32,3.90
2009,11,01,02,33,3.90
2009,11,01,02,34,3.90
2009,11,01,02,35,3.90
2009,11,01,02,36,3.90
2009,11,01,02,37,3.90
2009,11,01,02,38,3.90
2009,11,01,02,39,3.90
2009,11,01,02,40,3.90
2009,11,01,02,41,3.90
2009,11,01,02,42,3.90
2009,11,01,02,43,3.90
2009,11,01,02,44,3.90
2009,11,01,02,45,3.90
2009,11,01,02,46,3.90
2009,11,01,02,47,3.90
2009,11,01,02,48,3.90
2009,11,01,02,49,3.90
2009,11,01,02,50,3.90
2009,11,01,02,51,3.90
2009,11,01,02,52,3.90
2009,11,01,02,53,3.90
2009,11,01,02,54,3.90
2009,11,01,02,55,3.80
2009,11,01,02,56,3.80
2009,11,01,02,57,3.80
2009,11,01,02,58,3.80
2009,11,01,02,59,3.80
2009,11,01,03,00,3.80
2009,11,01,03,01,3.80
2009,11,01,03,02,3.80
2009,11,01,03,03,3.80
2009,11,01,03,04,3.80
2009,11,01,03,05,3.80
2009,11,01,03,06,3.80
2009,11,01,03,07,3.80
2009,11,01,03,08,3.80
2009,11,01,03,09,3.80
2009,11,01,03,10,3.80
2009,11,01,03,11,3.80
2009,11,01,03,12,3.80
2009,11,01,03,13,3.80
2009,11,01,03,14,3.80
2009,11,01,03,15,3.70
2009,11,01,03,16,3.70
2009,11,01,03,17,3.70
2009,11,01,03,18,3.70
2009,11,01,03,19,3.70
2009,11,01,03,20,3.70
2009,11,01,03,21,3.70
2009,11,01,03,22,3.60
2009,11,01,03,23,3.60
2009,11,01,03,24,3.60
2009,11,01,03,25,3.60
2009,11,01,03,26,3.60
2009,11,01,03,27,3.60
2009,11,01,03,28,3.60
2009,11,01,03,29,3.60
2009,11,01,03,30,3.60
2009,11,01,03,31,3.60
2009,11,01,03,32,3.60
2009,11,01,03,33,3.60
2009,11,01,03,34,3.60
2009,11,01,03,35,3.60
2009,11,01,03,36,3.70
2009,11,01,03,37,3.70
2009,11,01,03,38,3.70
2009,11,01,03,39,3.70
2009,11,01,03,40,3.70
2009,11,01,03,41,3.70
2009,11,01,03,42,3.70
2009,11,01,03,43,3.70
2009,11,01,03,44,3.70
2009,11,01,03,45,3.70
2009,11,01,03,46,3.70
2009,11,01,03,47,3.70
2009,11,01,03,48,3.70
2009,11,01,03,49,3.70
2009,11,01,03,50,3.70
2009,11,01,03,51,3.70
2009,11,01,03,52,3.70
2009,11,01,03,53,3.70
2009,11,01,03,54,3.70
2009,11,01,03,55,3.70
2009,11,01,03,56,3.70
2009,11,01,03,57,3.70
2009,11,01,03,58,3.70
2009,11,01,03,59,3.70
2009,11,01,04,00,3.60
2009,11,01,04,01,3.60
2009,11,01,04,02,3.60
2009,11,01,04,03,3.60
2009,11,01,04,04,3.60
2009,11,01,04,05,3.60
2009,11,01,04,06,3.60
2009,11,01,04,07,3.50
2009,11,01,04,08,3.50
2009,11,01,04,09,3.50
2009,11,01,04,10,3.50
2009,11,01,04,11,3.50
2009,11,01,04,12,3.50
2009,11,01,04,13,3.50
2009,11,01,04,14,3.50
2009,11,01,04,15,3.50
2009,11,01,04,16,3.50
2009,11,01,04,17,3.60
2009,11,01,04,18,3.60
2009,11,01,04,19,3.50
2009,11,01,04,20,3.50
2009,11,01,04,21,3.50
2009,11,01,04,22,3.50
2009,11,01,04,23,3.50
2009,11,01,04,24,3.50
2009,11,01,04,25,3.50
2009,11,01,04,26,3.50
2009,11,01,04,27,3.50
2009,11,01,04,28,3.50
2009,11,01,04,29,3.50
2009,11,01,04,30,3.50
2009,11,01,04,31,3.50
2009,11,01,04,32,3.50
2009,11,01,04,33,3.40
2009,11,01,04,34,3.40
2009,11,01,04,35,3.40
2009,11,01,04,36,3.40
2009,11,01,04,37,3.40
2009,11,01,04,38,3.40
2009,11,01,04,39,3.40
2009,11,01,04,40,3.40
2009,11,01,04,41,3.40
2009,11,01,04,42,3.30
2009,11,01,04,43,3.30
2009,11,01,04,44,3.30
2009,11,01,04,45,3.30
2009,11,01,04,46,3.30
2009,11,01,04,47,3.30
2009,11,01,04,48,3.30
2009,11,01,04,49,3.30
2009,11,01,04,50,3.30
2009,11,01,04,51,3.30
2009,11,01,04,52,3.30
2009,11,01,04,53,3.30
2009,11,01,04,54,3.30
2009,11,01,04,55,3.30
2009,11,01,04,56,3.30
2009,11,01,04,57,3.20
2009,11,01,04,58,3.20
2009,11,01,04,59,3.20
2009,11,01,05,00,3.20
2009,11,01,05,01,3.20
2009,11,01,05,02,3.20
2009,11,01,05,03,3.20
2009,11,01,05,04,3.10
2009,11,01,05,05,3.10
2009,11,01,05,06,3.10
2009,11,01,05,07,3.10
2009,11,01,05,08,3.00
2009,11,01,05,09,3.00
2009,11,01,05,10,3.00
2009,11,01,05,11,3.00
2009,11,01,05,12,2.90
2009,11,01,05,13,2.90
2009,11,01,05,14,2.90
2009,11,01,05,15,2.90
2009,11,01,05,16,2.90
2009,11,01,05,17,2.90
2009,11,01,05,18,2.90
2009,11,01,05,19,2.90
2009,11,01,05,20,2.90
2009,11,01,05,21,2.90
2009,11,01,05,22,2.90
2009,11,01,05,23,2.90
2009,11,01,05,24,2.90
2009,11,01,05,25,2.90
2009,11,01,05,26,2.90
2009,11,01,05,27,2.90
2009,11,01,05,28,2.90
2009,11,01,05,29,3.00
2009,11,01,05,30,3.00
2009,11,01,05,31,3.00
2009,11,01,05,32,3.00
2009,11,01,05,33,3.00
2009,11,01,05,34,3.00
2009,11,01,05,35,3.00
2009,11,01,05,36,3.00
2009,11,01,05,37,2.90
2009,11,01,05,38,2.90
2009,11,01,05,39,2.90
2009,11,01,05,40,2.90
2009,11,01,05,41,2.90
2009,11,01,05,42,2.90
2009,11,01,05,43,2.90
2009,11,01,05,44,2.80
2009,11,01,05,45,2.80
2009,11,01,05,46,2.80
2009,11,01,05,47,2.80
2009,11,01,05,48,2.80
2009,11,01,05,49,2.80
2009,11,01,05,50,2.80
2009,11,01,05,51,2.90
2009,11,01,05,52,2.90
2009,11,01,05,53,2.80
2009,11,01,05,54,2.90
2009,11,01,05,55,2.90
2009,11,01,05,56,2.90
2009,11,01,05,57,2.90
2009,11,01,05,58,2.90
2009,11,01,05,59,2.90
2009,11,01,06,00,2.90
2009,11,01,06,01,2.90
2009,11,01,06,02,2.90
2009,11,01,06,03,2.90
2009,11,01,06,04,2.90
2009,11,01,06,05,2.90
2009,11,01,06,06,2.90
2009,11,01,06,07,2.90
2009,11,01,06,08,2.90
2009,11,01,06,09,2.90
2009,11,01,06,10,2.90
2009,11,01,06,11,2.90
2009,11,01,06,12,2.90
2009,11,01,06,13,2.90
2009,11,01,06,14,2.80
2009,11,01,06,15,2.80
2009,11,01,06,16,2.80
2009,11,01,06,17,2.80
2009,11,01,06,18,2.80
2009,11,01,06,19,2.80
2009,11,01,06,20,2.80
2009,11,01,06,21,2.80
2009,11,01,06,22,2.80
2009,11,01,06,23,2.80
2009,11,01,06,24,2.80
2009,11,01,06,25,2.80
2009,11,01,06,26,2.80
2009,11,01,06,27,2.80
2009,11,01,06,28,2.80
2009,11,01,06,29,2.80
2009,11,01,06,30,2.80
2009,11,01,06,31,2.80
2009,11,01,06,32,2.80
2009,11,01,06,33,2.80
2009,11,01,06,34,2.80
2009,11,01,06,35,2.80
2009,11,01,06,36,2.80
2009,11,01,06,37,2.80
2009,11,01,06,38,2.80
2009,11,01,06,39,2.80
2009,11,01,06,40,2.80
2009,11,01,06,41,2.80
2009,11,01,06,42,2.80
2009,11,01,06,43,2.80
2009,11,01,06,44,2.80
2009,11,01,06,45,2.80
2009,11,01,06,46,2.90
2009,11,01,06,47,2.90
2009,11,01,06,48,2.90
2009,11,01,06,49,2.90
2009,11,01,06,50,2.90
2009,11,01,06,51,2.90
2009,11,01,06,52,2.90
2009,11,01,06,53,2.90
2009,11,01,06,54,2.90
2009,11,01,06,55,2.90
2009,11,01,06,56,2.90
2009,11,01,06,57,2.90
2009,11,01,06,58,2.90
2009,11,01,06,59,2.90
2009,11,01,07,00,2.90
2009,11,01,07,01,2.90
2009,11,01,07,02,2.90
2009,11,01,07,03,2.90
2009,11,01,07,04,2.90
2009,11,01,07,05,2.90
2009,11,01,07,06,2.90
2009,11,01,07,07,2.90
2009,11,01,07,08,2.90
2009,11,01,07,09,2.90
2009,11,01,07,10,2.90
2009,11,01,07,11,2.90
2009,11,01,07,12,2.90
2009,11,01,07,13,2.90
2009,11,01,07,14,2.90
2009,11,01,07,15,2.90
2009,11,01,07,16,2.90
2009,11,01,07,17,2.90
2009,11,01,07,18,2.90
2009,11,01,07,19,2.90
2009,11,01,07,20,2.90
2009,11,01,07,21,2.90
2009,11,01,07,22,2.90
2009,11,01,07,23,2.90
2009,11,01,07,24,2.90
2009,11,01,07,25,2.90
2009,11,01,07,26,2.90
2009,11,01,07,27,2.90
2009,11,01,07,28,2.90
2009,11,01,07,29,2.90
2009,11,01,07,30,2.90
2009,11,01,07,31,2.90
2009,11,01,07,32,2.90
2009,11,01,07,33,2.90
2009,11,01,07,34,3.00
2009,11,01,07,35,3.00
2009,11,01,07,36,3.00
2009,11,01,07,37,3.00
2009,11,01,07,38,3.00
2009,11,01,07,39,3.00
2009,11,01,07,40,3.10
2009,11,01,07,41,3.10
2009,11,01,07,42,3.10
2009,11,01,07,43,3.10
2009,11,01,07,44,3.10
2009,11,01,07,45,3.10
2009,11,01,07,46,3.20
2009,11,01,07,47,3.20
2009,11,01,07,48,3.20
2009,11,01,07,49,3.20
2009,11,01,07,50,3.20
2009,11,01,07,51,3.20
2009,11,01,07,52,3.30
2009,11,01,07,53,3.30
2009,11,01,07,54,3.30
2009,11,01,07,55,3.30
2009,11,01,07,56,3.40
2009,11,01,07,57,3.40
2009,11,01,07,58,3.40
2009,11,01,07,59,3.40
2009,11,01,08,00,3.50
2009,11,01,08,01,3.50
2009,11,01,08,02,3.50
2009,11,01,08,03,3.60
2009,11,01,08,04,3.60
2009,11,01,08,05,3.60
2009,11,01,08,06,3.60
2009,11,01,08,07,3.70
2009,11,01,08,08,3.70
2009,11,01,08,09,3.70
2009,11,01,08,10,3.80
2009,11,01,08,11,3.80
2009,11,01,08,12,3.80
2009,11,01,08,13,3.80
2009,11,01,08,14,3.80
2009,11,01,08,15,3.90
2009,11,01,08,16,3.90
2009,11,01,08,17,3.90
2009,11,01,08,18,3.90
2009,11,01,08,19,3.90
2009,11,01,08,20,4.00
2009,11,01,08,21,4.00
2009,11,01,08,22,4.00
2009,11,01,08,23,4.10
2009,11,01,08,24,4.10
2009,11,01,08,25,4.10
2009,11,01,08,26,4.10
2009,11,01,08,27,4.10
2009,11,01,08,28,4.20
2009,11,01,08,29,4.20
2009,11,01,08,30,4.20
2009,11,01,08,31,4.20
2009,11,01,08,32,4.20
2009,11,01,08,33,4.30
2009,11,01,08,34,4.30
2009,11,01,08,35,4.30
2009,11,01,08,36,4.30
2009,11,01,08,37,4.30
2009,11,01,08,38,4.40
2009,11,01,08,39,4.40
2009,11,01,08,40,4.40
2009,11,01,08,41,4.40
2009,11,01,08,42,4.50
2009,11,01,08,43,4.50
2009,11,01,08,44,4.50
2009,11,01,08,45,4.60
2009,11,01,08,46,4.60
2009,11,01,08,47,4.60
2009,11,01,08,48,4.70
2009,11,01,08,49,4.70
2009,11,01,08,50,4.70
2009,11,01,08,51,4.70
2009,11,01,08,52,4.70
2009,11,01,08,53,4.70
2009,11,01,08,54,4.80
2009,11,01,08,55,4.80
2009,11,01,08,56,4.80
2009,11,01,08,57,4.80
2009,11,01,08,58,4.80
2009,11,01,08,59,4.80
2009,11,01,09,00,4.80
2009,11,01,09,01,4.80
2009,11,01,09,02,4.80
2009,11,01,09,03,4.80
2009,11,01,09,04,4.80
2009,11,01,09,05,4.80
2009,11,01,09,06,4.80
2009,11,01,09,07,4.80
2009,11,01,09,08,4.90
2009,11,01,09,09,4.90
2009,11,01,09,10,4.90
2009,11,01,09,11,4.90
2009,11,01,09,12,4.90
2009,11,01,09,13,5.00
2009,11,01,09,14,5.00
2009,11,01,09,15,5.00
2009,11,01,09,16,5.00
2009,11,01,09,17,5.10
2009,11,01,09,18,5.10
2009,11,01,09,19,5.10
2009,11,01,09,20,5.10
2009,11,01,09,21,5.10
2009,11,01,09,22,5.20
2009,11,01,09,23,5.20
2009,11,01,09,24,5.20
2009,11,01,09,25,5.20
2009,11,01,09,26,5.20
2009,11,01,09,27,5.30
2009,11,01,09,28,5.30
2009,11,01,09,29,5.30
2009,11,01,09,30,5.30
2009,11,01,09,31,5.30
2009,11,01,09,32,5.40
2009,11,01,09,33,5.40
2009,11,01,09,34,5.40
2009,11,01,09,35,5.40
2009,11,01,09,36,5.40
2009,11,01,09,37,5.40
2009,11,01,09,38,5.40
2009,11,01,09,39,5.50
2009,11,01,09,40,5.50
2009,11,01,09,41,5.50
2009,11,01,09,42,5.50
2009,11,01,09,43,5.60
2009,11,01,09,44,5.60
2009,11,01,09,45,5.60
2009,11,01,09,46,5.70
2009,11,01,09,47,5.70
2009,11,01,09,48,5.70
2009,11,01,09,49,5.70
2009,11,01,09,50,5.70
2009,11,01,09,51,5.70
2009,11,01,09,52,5.80
2009,11,01,09,53,5.80
2009,11,01,09,54,5.80
2009,11,01,09,55,5.80
2009,11,01,09,56,5.90
2009,11,01,09,57,5.90
2009,11,01,09,58,5.90
2009,11,01,09,59,5.90
2009,11,01,10,00,5.90
2009,11,01,10,01,5.90
2009,11,01,10,02,5.90
2009,11,01,10,03,5.90
2009,11,01,10,04,6.00
2009,11,01,10,05,6.00
2009,11,01,10,06,6.00
2009,11,01,10,07,6.00
2009,11,01,10,08,6.00
2009,11,01,10,09,6.00
2009,11,01,10,10,6.10
2009,11,01,10,11,6.10
2009,11,01,10,12,6.10
2009,11,01,10,13,6.10
2009,11,01,10,14,6.10
2009,11,01,10,15,6.10
2009,11,01,10,16,6.10
2009,11,01,10,17,6.20
2009,11,01,10,18,6.20
2009,11,01,10,19,6.20
2009,11,01,10,20,6.30
2009,11,01,10,21,6.30
2009,11,01,10,22,6.30
2009,11,01,10,23,6.30
2009,11,01,10,24,6.40
2009,11,01,10,25,6.40
2009,11,01,10,26,6.50
2009,11,01,10,27,6.50
2009,11,01,10,28,6.50
2009,11,01,10,29,6.60
2009,11,01,10,30,6.60
2009,11,01,10,31,6.60
2009,11,01,10,32,6.70
2009,11,01,10,33,6.70
2009,11,01,10,34,6.70
2009,11,01,10,35,6.70
2009,11,01,10,36,6.70
2009,11,01,10,37,6.70
2009,11,01,10,38,6.80
2009,11,01,10,39,6.80
2009,11,01,10,40,6.80
2009,11,01,10,41,6.80
2009,11,01,10,42,6.80
2009,11,01,10,43,6.80
2009,11,01,10,44,6.80
2009,11,01,10,45,6.90
2009,11,01,10,46,6.90
2009,11,01,10,47,6.90
2009,11,01,10,48,6.90
2009,11,01,10,49,6.90
2009,11,01,10,50,6.90
2009,11,01,10,51,7.00
2009,11,01,10,52,7.00
2009,11,01,10,53,7.00
2009,11,01,10,54,7.10
2009,11,01,10,55,7.10
2009,11,01,10,56,7.10
2009,11,01,10,57,7.10
2009,11,01,10,58,7.20
2009,11,01,10,59,7.20
2009,11,01,11,00,7.20
2009,11,01,11,01,7.20
2009,11,01,11,02,7.20
2009,11,01,11,03,7.20
2009,11,01,11,04,7.20
2009,11,01,11,05,7.30
2009,11,01,11,06,7.30
2009,11,01,11,07,7.30
2009,11,01,11,08,7.40
2009,11,01,11,09,7.40
2009,11,01,11,10,7.40
2009,11,01,11,11,7.40
2009,11,01,11,12,7.50
2009,11,01,11,13,7.50
2009,11,01,11,14,7.50
2009,11,01,11,15,7.60
2009,11,01,11,16,7.60
2009,11,01,11,17,7.60
2009,11,01,11,18,7.60
2009,11,01,11,19,7.70
2009,11,01,11,20,7.70
2009,11,01,11,21,7.70
2009,11,01,11,22,7.80
2009,11,01,11,23,7.80
2009,11,01,11,24,7.80
2009,11,01,11,25,7.90
2009,11,01,11,26,7.90
2009,11,01,11,27,8.00
2009,11,01,11,28,8.00
2009,11,01,11,29,8.10
2009,11,01,11,30,8.10
2009,11,01,11,31,8.10
2009,11,01,11,32,8.10
2009,11,01,11,33,8.20
2009,11,01,11,34,8.20
2009,11,01,11,35,8.20
2009,11,01,11,36,8.30
2009,11,01,11,37,8.30
2009,11,01,11,38,8.40
2009,11,01,11,39,8.40
2009,11,01,11,40,8.40
2009,11,01,11,41,8.50
2009,11,01,11,42,8.60
2009,11,01,11,43,8.70
2009,11,01,11,44,8.70
2009,11,01,11,45,8.80
2009,11,01,11,46,8.80
2009,11,01,11,47,8.80
2009,11,01,11,48,8.90
2009,11,01,11,49,8.90
2009,11,01,11,50,9.00
2009,11,01,11,51,9.00
2009,11,01,11,52,9.10
2009,11,01,11,53,9.20
2009,11,01,11,54,9.30
2009,11,01,11,55,9.40
2009,11,01,11,56,9.60
2009,11,01,11,57,9.70
2009,11,01,11,58,9.80
2009,11,01,11,59,9.90
2009,11,01,12,00,10.10
2009,11,01,12,01,10.10
2009,11,01,12,02,10.20
2009,11,01,12,03,10.30
2009,11,01,12,04,10.30
2009,11,01,12,05,10.40
2009,11,01,12,06,10.40
2009,11,01,12,07,10.50
2009,11,01,12,08,10.60
2009,11,01,12,09,10.60
2009,11,01,12,10,10.60
2009,11,01,12,11,10.70
2009,11,01,12,12,10.70
2009,11,01,12,13,10.70
2009,11,01,12,14,10.80
2009,11,01,12,15,10.80
2009,11,01,12,16,10.80
2009,11,01,12,17,10.90
2009,11,01,12,18,10.90
2009,11,01,12,19,10.90
2009,11,01,12,20,11.00
2009,11,01,12,21,11.00
2009,11,01,12,22,11.10
2009,11,01,12,23,11.10
2009,11,01,12,24,11.10
2009,11,01,12,25,11.20
2009,11,01,12,26,11.20
2009,11,01,12,27,11.20
2009,11,01,12,28,11.20
2009,11,01,12,29,11.30
2009,11,01,12,30,11.30
2009,11,01,12,31,11.30
2009,11,01,12,32,11.40
2009,11,01,12,33,11.40
2009,11,01,12,34,11.50
2009,11,01,12,35,11.60
2009,11,01,12,36,11.60
2009,11,01,12,37,11.70
2009,11,01,12,38,11.70
2009,11,01,12,39,11.70
2009,11,01,12,40,11.80
2009,11,01,12,41,11.80
2009,11,01,12,42,11.80
2009,11,01,12,43,11.80
2009,11,01,12,44,11.80
2009,11,01,12,45,11.90
2009,11,01,12,46,11.90
2009,11,01,12,47,11.90
2009,11,01,12,48,11.90
2009,11,01,12,49,11.90
2009,11,01,12,50,11.90
2009,11,01,12,51,12.00
2009,11,01,12,52,12.00
2009,11,01,12,53,12.00
2009,11,01,12,54,12.00
2009,11,01,12,55,12.00
2009,11,01,12,56,11.90
2009,11,01,12,57,11.90
2009,11,01,12,58,11.90
2009,11,01,12,59,11.90
2009,11,01,13,00,11.90
2009,11,01,13,01,11.90
2009,11,01,13,02,11.90
2009,11,01,13,03,11.90
2009,11,01,13,04,11.90
2009,11,01,13,05,11.90
2009,11,01,13,06,12.00
2009,11,01,13,07,12.00
2009,11,01,13,08,12.10
2009,11,01,13,09,12.10
2009,11,01,13,10,12.10
2009,11,01,13,11,12.20
2009,11,01,13,12,12.20
2009,11,01,13,13,12.20
2009,11,01,13,14,12.30
2009,11,01,13,15,12.30
2009,11,01,13,16,12.40
2009,11,01,13,17,12.40
2009,11,01,13,18,12.50
2009,11,01,13,19,12.50
2009,11,01,13,20,12.50
2009,11,01,13,21,12.40
2009,11,01,13,22,12.40
2009,11,01,13,23,12.40
2009,11,01,13,24,12.40
2009,11,01,13,25,12.40
2009,11,01,13,26,12.40
2009,11,01,13,27,12.30
2009,11,01,13,28,12.40
2009,11,01,13,29,12.30
2009,11,01,13,30,12.30
2009,11,01,13,31,12.40
2009,11,01,13,32,12.40
2009,11,01,13,33,12.40
2009,11,01,13,34,12.40
2009,11,01,13,35,12.40
2009,11,01,13,36,12.40
2009,11,01,13,37,12.40
2009,11,01,13,38,12.40
2009,11,01,13,39,12.40
2009,11,01,13,40,12.40
2009,11,01,13,41,12.40
2009,11,01,13,42,12.40
2009,11,01,13,43,12.40
2009,11,01,13,44,12.40
2009,11,01,13,45,12.30
2009,11,01,13,46,12.30
2009,11,01,13,47,12.30
2009,11,01,13,48,12.30
2009,11,01,13,49,12.30
2009,11,01,13,50,12.30
2009,11,01,13,51,12.30
2009,11,01,13,52,12.30
2009,11,01,13,53,12.30
2009,11,01,13,54,12.30
2009,11,01,13,55,12.30
2009,11,01,13,56,12.30
2009,11,01,13,57,12.20
2009,11,01,13,58,12.20
2009,11,01,13,59,12.20
2009,11,01,14,00,12.10
2009,11,01,14,01,12.00
2009,11,01,14,02,11.90
2009,11,01,14,03,11.80
2009,11,01,14,04,11.70
2009,11,01,14,05,11.60
2009,11,01,14,06,11.60
2009,11,01,14,07,11.50
2009,11,01,14,08,11.40
2009,11,01,14,09,11.40
2009,11,01,14,10,11.30
2009,11,01,14,11,11.20
2009,11,01,14,12,11.20
2009,11,01,14,13,11.10
2009,11,01,14,14,11.10
2009,11,01,14,15,11.10
2009,11,01,14,16,11.00
2009,11,01,14,17,11.00
2009,11,01,14,18,10.90
2009,11,01,14,19,10.90
2009,11,01,14,20,10.90
2009,11,01,14,21,10.90
2009,11,01,14,22,10.90
2009,11,01,14,23,10.90
2009,11,01,14,24,10.90
2009,11,01,14,25,11.00
2009,11,01,14,26,11.00
2009,11,01,14,27,11.00
2009,11,01,14,28,11.00
2009,11,01,14,29,11.10
2009,11,01,14,30,11.10
2009,11,01,14,31,11.10
2009,11,01,14,32,11.10
2009,11,01,14,33,11.10
2009,11,01,14,34,11.20
2009,11,01,14,35,11.20
2009,11,01,14,36,11.20
2009,11,01,14,37,11.20
2009,11,01,14,38,11.20
2009,11,01,14,39,11.20
2009,11,01,14,40,11.20
2009,11,01,14,41,11.20
2009,11,01,14,42,11.20
2009,11,01,14,43,11.10
2009,11,01,14,44,11.10
2009,11,01,14,45,11.10
2009,11,01,14,46,11.10
2009,11,01,14,47,11.10
2009,11,01,14,48,11.10
2009,11,01,14,49,11.00
2009,11,01,14,50,11.00
2009,11,01,14,51,11.00
2009,11,01,14,52,11.00
2009,11,01,14,53,10.90
2009,11,01,14,54,10.90
2009,11,01,14,55,10.90
2009,11,01,14,56,10.90
2009,11,01,14,57,10.90
2009,11,01,14,58,10.80
2009,11,01,14,59,10.80
2009,11,01,15,00,10.80
2009,11,01,15,01,10.80
2009,11,01,15,02,10.80
2009,11,01,15,03,10.70
2009,11,01,15,04,10.70
2009,11,01,15,05,10.70
2009,11,01,15,06,10.70
2009,11,01,15,07,10.70
2009,11,01,15,08,10.70
2009,11,01,15,09,10.70
2009,11,01,15,10,10.70
2009,11,01,15,11,10.70
2009,11,01,15,12,10.70
2009,11,01,15,13,10.80
2009,11,01,15,14,10.80
2009,11,01,15,15,10.80
2009,11,01,15,16,10.80
2009,11,01,15,17,10.80
2009,11,01,15,18,10.80
2009,11,01,15,19,10.80
2009,11,01,15,20,10.80
2009,11,01,15,21,10.90
2009,11,01,15,22,10.90
2009,11,01,15,23,10.90
2009,11,01,15,24,10.90
2009,11,01,15,25,10.90
2009,11,01,15,26,10.90
2009,11,01,15,27,11.00
2009,11,01,15,28,11.00
2009,11,01,15,29,11.00
2009,11,01,15,30,11.10
2009,11,01,15,31,11.10
2009,11,01,15,32,11.10
2009,11,01,15,33,11.10
2009,11,01,15,34,11.10
2009,11,01,15,35,11.10
2009,11,01,15,36,11.10
2009,11,01,15,37,11.10
2009,11,01,15,38,11.10
2009,11,01,15,39,11.10
2009,11,01,15,40,11.10
2009,11,01,15,41,11.10
2009,11,01,15,42,11.10
2009,11,01,15,43,11.10
2009,11,01,15,44,11.10
2009,11,01,15,45,11.10
2009,11,01,15,46,11.00
2009,11,01,15,47,11.00
2009,11,01,15,48,11.00
2009,11,01,15,49,10.90
2009,11,01,15,50,10.90
2009,11,01,15,51,10.90
2009,11,01,15,52,10.80
2009,11,01,15,53,10.80
2009,11,01,15,54,10.80
2009,11,01,15,55,10.70
2009,11,01,15,56,10.70
2009,11,01,15,57,10.70
2009,11,01,15,58,10.60
2009,11,01,15,59,10.60
2009,11,01,16,00,10.50
2009,11,01,16,01,10.50
2009,11,01,16,02,10.40
2009,11,01,16,03,10.40
2009,11,01,16,04,10.40
2009,11,01,16,05,10.30
2009,11,01,16,06,10.30
2009,11,01,16,07,10.30
2009,11,01,16,08,10.20
2009,11,01,16,09,10.20
2009,11,01,16,10,10.20
2009,11,01,16,11,10.20
2009,11,01,16,12,10.10
2009,11,01,16,13,10.10
2009,11,01,16,14,10.10
2009,11,01,16,15,10.10
2009,11,01,16,16,10.00
2009,11,01,16,17,10.00
2009,11,01,16,18,9.90
2009,11,01,16,19,9.90
2009,11,01,16,20,9.90
2009,11,01,16,21,9.80
2009,11,01,16,22,9.80
2009,11,01,16,23,9.80
2009,11,01,16,24,9.80
2009,11,01,16,25,9.80
2009,11,01,16,26,9.70
2009,11,01,16,27,9.70
2009,11,01,16,28,9.70
2009,11,01,16,29,9.70
2009,11,01,16,30,9.60
2009,11,01,16,31,9.60
2009,11,01,16,32,9.60
2009,11,01,16,33,9.60
2009,11,01,16,34,9.50
2009,11,01,16,35,9.50
2009,11,01,16,36,9.40
2009,11,01,16,37,9.40
2009,11,01,16,38,9.40
2009,11,01,16,39,9.40
2009,11,01,16,40,9.30
2009,11,01,16,41,9.30
2009,11,01,16,42,9.30
2009,11,01,16,43,9.30
2009,11,01,16,44,9.20
2009,11,01,16,45,9.20
2009,11,01,16,46,9.20
2009,11,01,16,47,9.20
2009,11,01,16,48,9.20
2009,11,01,16,49,9.10
2009,11,01,16,50,9.10
2009,11,01,16,51,9.10
2009,11,01,16,52,9.10
2009,11,01,16,53,9.00
2009,11,01,16,54,9.00
2009,11,01,16,55,9.00
2009,11,01,16,56,8.90
2009,11,01,16,57,8.90
2009,11,01,16,58,8.90
2009,11,01,16,59,8.90
2009,11,01,17,00,8.90
2009,11,01,17,01,8.90
2009,11,01,17,02,8.80
2009,11,01,17,03,8.80
2009,11,01,17,04,8.80
2009,11,01,17,05,8.80
2009,11,01,17,06,8.80
2009,11,01,17,07,8.80
2009,11,01,17,08,8.80
2009,11,01,17,09,8.70
2009,11,01,17,10,8.70
2009,11,01,17,11,8.70
2009,11,01,17,12,8.70
2009,11,01,17,13,8.70
2009,11,01,17,14,8.70
2009,11,01,17,15,8.70
2009,11,01,17,16,8.60
2009,11,01,17,17,8.60
2009,11,01,17,18,8.60
2009,11,01,17,19,8.60
2009,11,01,17,20,8.60
2009,11,01,17,21,8.60
2009,11,01,17,22,8.60
2009,11,01,17,23,8.60
2009,11,01,17,24,8.60
2009,11,01,17,25,8.60
2009,11,01,17,26,8.60
2009,11,01,17,27,8.60
2009,11,01,17,28,8.60
2009,11,01,17,29,8.60
2009,11,01,17,30,8.60
2009,11,01,17,31,8.50
2009,11,01,17,32,8.50
2009,11,01,17,33,8.50
2009,11,01,17,34,8.50
2009,11,01,17,35,8.40
2009,11,01,17,36,8.40
2009,11,01,17,37,8.40
2009,11,01,17,38,8.40
2009,11,01,17,39,8.40
2009,11,01,17,40,8.40
2009,11,01,17,41,8.30
2009,11,01,17,42,8.30
2009,11,01,17,43,8.30
2009,11,01,17,44,8.30
2009,11,01,17,45,8.30
2009,11,01,17,46,8.30
2009,11,01,17,47,8.30
2009,11,01,17,48,8.20
2009,11,01,17,49,8.20
2009,11,01,17,50,8.20
2009,11,01,17,51,8.20
2009,11,01,17,52,8.20
2009,11,01,17,53,8.10
2009,11,01,17,54,8.10
2009,11,01,17,55,8.10
2009,11,01,17,56,8.10
2009,11,01,17,57,8.10
2009,11,01,17,58,8.00
2009,11,01,17,59,8.00
2009,11,01,18,00,8.00
2009,11,01,18,01,8.00
2009,11,01,18,02,7.90
2009,11,01,18,03,7.90